INTELSAT 31 (IS-31)

Last updated on Fri Oct 11 2024 00:02:41 GMT+0000 (Coordinated Universal Time)

1 41581U 16035A 24284.16989267 -.00000145 00000+0 00000+0 0 9991 2 41581 0.0060 214.9487 0001370 300.6792 189.7537 1.00269926 30525
UTC large
Height (km)
Speed (km/s)
/
Latitude / Longitude
Inclination (degrees)
Orbital Period (minutes)
Azimuth
Elevation
Range (km)
Doppler Factor

Next 0 passes for location: London (51.5072 / 0.1276)

Sorry there are no passes over London.